Fort Yukon, AK

6:08 PM AKST on January 17, 2018 (GMT -0900)
Fort Yukon

Weather History for PFYU - November, 2012

Change the Weather History Date:

Sunday, November 4, 2012

  Actual Average Record
Temperature  
Mean Temperature 8 °F -  
Max Temperature 10 °F 7 °F 26 °F (2002)
Min Temperature 3 °F -2 °F -34 °F (1999)
Degree Days  
Heating Degree Days 58    
Moisture  
Dew Point 3 °F    
Average Humidity 77    
Maximum Humidity 85    
Minimum Humidity 67    
Precipitation  
Precipitation 0.00 in - - ()
Sea Level Pressure  
Sea Level Pressure 29.79 in    
Wind  
Wind Speed 13 mph (NNE)    
Max Wind Speed 16 mph    
Max Gust Speed 23 mph    
Visibility 7 miles    
Events      
Averages and records for this station are not official NWS values.
T = Trace of Precipitation, MM = Missing Value Source: NWS Daily Summary

Daily Weather History Graph

Daily Weather History Graph

Search for Another Location

Airport or City:

Trip Planner

Search our weather history database for the weather conditions in past years. The results will help you decide how hot, cold, wet, or windy it might be!

Date:

Astronomy

Nov. 04, 2012 Rise Set
Actual Time 8:54 AM AKST 3:53 PM AKST
Civil Twilight 7:52 AM AKST 4:55 PM AKST
Nautical Twilight 6:48 AM AKST 5:59 PM AKST
Astronomical Twilight 5:47 AM AKST 7:00 PM AKST
Moon 8:15 PM AKST (11/4) 2:14 PM AKST (11/4)
Length of Visible Light 9h 03m
Length of Day
6h 58m
Waning Gibbous, 70% of the Moon is Illuminated
Nov 4
Waning Gibbous
Nov 6
Last Quarter
Nov 13
New
Nov 20
First Quarter
Nov 28
Full

Hourly Weather History & Observations

Time (AKST) Temp. Windchill Dew Point Humidity Pressure Visibility Wind Dir Wind Speed Gust Speed Precip Events Conditions
12:16 AM 10.4 °F -6.0 °F 3.2 °F 73% 29.87 in 9.0 mi NE 15.0 mph 21.9 mph N/A   Overcast
12:36 AM 10.4 °F -6.6 °F 1.4 °F 67% 29.87 in 10.0 mi NE 16.1 mph 21.9 mph N/A   Overcast
12:56 AM 10.4 °F -5.4 °F 1.4 °F 67% 29.87 in 10.0 mi NE 13.8 mph 23.0 mph N/A   Overcast
1:16 AM 10.4 °F -6.6 °F 3.2 °F 73% 29.87 in 10.0 mi NE 16.1 mph 20.7 mph N/A   Overcast
1:36 AM 10.4 °F -6.0 °F 3.2 °F 73% 29.87 in 9.0 mi NE 15.0 mph 20.7 mph N/A   Overcast
1:56 AM 10.4 °F -6.0 °F 3.2 °F 73% 29.87 in 9.0 mi NE 15.0 mph 20.7 mph N/A   Overcast
1:16 AM 10.4 °F -5.4 °F 3.2 °F 73% 29.86 in 10.0 mi NE 13.8 mph 18.4 mph N/A   Overcast
1:36 AM 10.4 °F -6.0 °F 3.2 °F 73% 29.86 in 10.0 mi NE 15.0 mph 20.7 mph N/A   Overcast
1:56 AM 10.4 °F -6.0 °F 3.2 °F 73% 29.86 in 10.0 mi NE 15.0 mph 18.4 mph N/A   Overcast
2:16 AM 10.4 °F -5.4 °F 3.2 °F 73% 29.85 in 10.0 mi NE 13.8 mph - N/A   Overcast
3:36 AM 10.4 °F -5.4 °F 3.2 °F 73% 29.83 in 10.0 mi NE 13.8 mph 20.7 mph N/A   Overcast
3:56 AM 10.4 °F -6.6 °F 3.2 °F 73% 29.83 in 10.0 mi NE 16.1 mph 20.7 mph N/A   Overcast
4:16 AM 10.4 °F -6.0 °F 3.2 °F 73% 29.83 in 10.0 mi NE 15.0 mph 23.0 mph N/A   Overcast
4:36 AM 10.4 °F -4.8 °F 3.2 °F 73% 29.82 in 10.0 mi NE 12.7 mph 19.6 mph N/A   Overcast
4:56 AM 10.4 °F -4.1 °F 3.2 °F 73% 29.82 in 10.0 mi NE 11.5 mph - N/A   Overcast
5:16 AM 10.4 °F -5.4 °F 3.2 °F 73% 29.82 in 3.0 mi NE 13.8 mph 19.6 mph N/A   Overcast
5:36 AM 10.4 °F -4.1 °F 5.0 °F 79% 29.82 in 3.0 mi NE 11.5 mph 18.4 mph N/A   Overcast
5:56 AM 10.4 °F -4.8 °F 5.0 °F 79% 29.82 in 3.0 mi NE 12.7 mph - N/A   Overcast
6:16 AM 10.4 °F -4.8 °F 3.2 °F 73% 29.81 in 3.0 mi NE 12.7 mph - N/A   Overcast
6:36 AM 10.4 °F -4.1 °F 3.2 °F 73% 29.81 in 3.0 mi NE 11.5 mph - N/A   Overcast
6:56 AM 10.4 °F -4.1 °F 3.2 °F 73% 29.80 in 4.0 mi NE 11.5 mph - N/A   Overcast
7:16 AM 8.6 °F -7.7 °F 3.2 °F 79% 29.80 in 7.0 mi NE 13.8 mph 18.4 mph N/A   Overcast
7:36 AM 8.6 °F -7.0 °F 3.2 °F 79% 29.80 in 5.0 mi NE 12.7 mph - N/A   Overcast
7:56 AM 8.6 °F -6.3 °F 3.2 °F 79% 29.80 in 7.0 mi NE 11.5 mph - N/A   Overcast
8:16 AM 8.6 °F -7.7 °F 3.2 °F 79% 29.80 in 10.0 mi NE 13.8 mph - N/A   Overcast
8:36 AM 8.6 °F -7.7 °F 3.2 °F 79% 29.79 in 4.0 mi NE 13.8 mph 18.4 mph N/A   Overcast
8:56 AM 8.6 °F -6.3 °F 3.2 °F 79% 29.79 in 5.0 mi NE 11.5 mph 18.4 mph N/A   Overcast
9:16 AM 8.6 °F -7.0 °F 3.2 °F 79% 29.79 in 10.0 mi NE 12.7 mph - N/A   Overcast
9:36 AM 8.6 °F -6.3 °F 1.4 °F 73% 29.79 in 10.0 mi NE 11.5 mph - N/A   Mostly Cloudy
9:56 AM 8.6 °F -7.0 °F 3.2 °F 79% 29.79 in 10.0 mi NE 12.7 mph 17.3 mph N/A   Overcast
10:16 AM 8.6 °F -6.3 °F 3.2 °F 79% 29.78 in 9.0 mi NE 11.5 mph - N/A   Mostly Cloudy
10:36 AM 8.6 °F -5.5 °F 3.2 °F 79% 29.78 in 9.0 mi NNE 10.4 mph - N/A   Mostly Cloudy
10:56 AM 8.6 °F -6.3 °F 3.2 °F 79% 29.78 in 9.0 mi NNE 11.5 mph 16.1 mph N/A   Scattered Clouds
11:16 AM 10.4 °F -4.1 °F 3.2 °F 73% 29.77 in 10.0 mi NE 11.5 mph - N/A   Scattered Clouds
11:36 AM 10.4 °F -4.8 °F 3.2 °F 73% 29.77 in 10.0 mi NE 12.7 mph - N/A   Mostly Cloudy
11:56 AM 10.4 °F -4.8 °F 3.2 °F 73% 29.78 in 5.0 mi NE 12.7 mph 17.3 mph N/A   Mostly Cloudy
12:16 PM 10.4 °F -4.8 °F 3.2 °F 73% 29.77 in 9.0 mi NE 12.7 mph - N/A   Overcast
12:36 PM 10.4 °F -3.3 °F 5.0 °F 79% 29.77 in 6.0 mi NE 10.4 mph 16.1 mph N/A   Overcast
12:56 PM 10.4 °F -3.3 °F 5.0 °F 79% 29.76 in 6.0 mi NE 10.4 mph - N/A   Mostly Cloudy
1:16 PM 10.4 °F -3.3 °F 6.8 °F 85% 29.76 in 6.0 mi NE 10.4 mph 16.1 mph N/A   Mostly Cloudy
1:36 PM 10.4 °F -4.1 °F 5.0 °F 79% 29.76 in 9.0 mi NE 11.5 mph - N/A   Scattered Clouds
1:56 PM 10.4 °F -4.8 °F 5.0 °F 79% 29.75 in 10.0 mi NNE 12.7 mph - N/A   Mostly Cloudy
2:16 PM 10.4 °F -2.4 °F 3.2 °F 73% 29.75 in 10.0 mi NNE 9.2 mph - N/A   Mostly Cloudy
2:36 PM 10.4 °F -5.4 °F 3.2 °F 73% 29.75 in 5.0 mi NE 13.8 mph - N/A   Mostly Cloudy
2:56 PM 10.4 °F -4.8 °F 5.0 °F 79% 29.74 in 7.0 mi NNE 12.7 mph 18.4 mph N/A   Mostly Cloudy
3:16 PM 10.4 °F -2.4 °F 5.0 °F 79% 29.74 in 4.0 mi NE 9.2 mph - N/A   Overcast
3:36 PM 10.4 °F -4.1 °F 5.0 °F 79% 29.75 in 5.0 mi NE 11.5 mph - N/A   Overcast
3:56 PM 10.4 °F -3.3 °F 5.0 °F 79% 29.74 in 5.0 mi NNE 10.4 mph - N/A   Overcast
4:16 PM 10.4 °F -2.4 °F 5.0 °F 79% 29.74 in 3.0 mi NNE 9.2 mph - N/A   Overcast
4:36 PM 10.4 °F -3.3 °F 3.2 °F 73% 29.74 in 10.0 mi NNE 10.4 mph 16.1 mph N/A   Partly Cloudy
4:56 PM 10.4 °F -4.1 °F 3.2 °F 73% 29.74 in 7.0 mi NNE 11.5 mph - N/A   Mostly Cloudy
5:16 PM 10.4 °F -3.3 °F 3.2 °F 73% 29.74 in 7.0 mi NNE 10.4 mph - N/A   Mostly Cloudy
5:36 PM 10.4 °F -1.5 °F 3.2 °F 73% 29.75 in 7.0 mi NNE 8.1 mph - N/A   Mostly Cloudy
5:56 PM 8.6 °F -1.3 °F 3.2 °F 79% 29.75 in 7.0 mi North 5.8 mph - N/A   Mostly Cloudy
6:16 PM 8.6 °F -2.6 °F 5.0 °F 85% 29.75 in 6.0 mi NNE 6.9 mph - N/A   Overcast
6:36 PM 10.4 °F -2.4 °F 3.2 °F 73% 29.76 in 6.0 mi NE 9.2 mph - N/A   Overcast
6:56 PM 10.4 °F -1.5 °F 3.2 °F 73% 29.76 in 6.0 mi NNE 8.1 mph - N/A   Overcast
7:16 PM 10.4 °F -0.4 °F 3.2 °F 73% 29.76 in 6.0 mi NNE 6.9 mph - N/A   Overcast
7:36 PM 10.4 °F -0.4 °F 5.0 °F 79% 29.76 in 6.0 mi North 6.9 mph - N/A   Overcast
7:56 PM 8.6 °F -2.6 °F 5.0 °F 85% 29.76 in 5.0 mi North 6.9 mph - N/A   Overcast
8:16 PM 8.6 °F -3.7 °F 5.0 °F 85% 29.76 in 3.0 mi North 8.1 mph - N/A   Overcast
8:36 PM 8.6 °F -4.7 °F 5.0 °F 85% 29.77 in 4.0 mi North 9.2 mph - N/A   Overcast
8:56 PM 8.6 °F -3.7 °F 5.0 °F 85% 29.77 in 4.0 mi North 8.1 mph - N/A   Overcast
9:16 PM 8.6 °F -3.7 °F 3.2 °F 79% 29.78 in 4.0 mi North 8.1 mph - N/A   Overcast
9:36 PM 6.8 °F -3.5 °F 3.2 °F 85% 29.78 in 5.0 mi North 5.8 mph - N/A   Overcast
9:56 PM 6.8 °F -5.9 °F 1.4 °F 79% 29.79 in 10.0 mi North 8.1 mph - N/A   Overcast
10:16 PM 5.0 °F -8.1 °F 1.4 °F 85% 29.79 in 10.0 mi North 8.1 mph - N/A   Overcast
10:36 PM 5.0 °F -8.1 °F -0.4 °F 78% 29.80 in 10.0 mi North 8.1 mph - N/A   Overcast
10:56 PM 3.2 °F -6.2 °F -0.4 °F 85% 29.80 in 10.0 mi NNW 4.6 mph - N/A   Overcast